SCP
0 0 0 0 0 0 0 0 0 0 0 0 0 0 0 0 0 0 0 0 0 0 0 0 0 0 0 0 0 0 0 0 0 0 0 0 0 0 0 0 0 0 0
0 0 0 0 0 0 0 0 0 0 0 0 0 0 0 0 0 0 0 0 0 0 0 0 0 0 0 0 0 0 0 0 0 0 0 0 0 0 0 0 0 0 0
0 0 0 0 0 0 0 0 0 0 0 0 0 0 0 0 0 0 0 0 0 0 0 0 0 0 0 0 0 0 0 0 0 0 0 0 0 0 0 0 0 0 0
0 0 0 0 0 0 0 0 0 0 0 0 0 0 0 0 0 0 0 0 0 0 0 0 0 0 0 0 0 0 0 0 0 0 0 0 0 0 0 0 0 0 0
0 0 0 0 0 0 0 0 0 0 0 0 0 0 0 0 0 0 0 0 0 0 0 0 0 0 0 0 0 0 0 0 0 0 0 0 0 0 0 0 0 0 0
0 0 0 0 0 0 0 0 0 0 0 0 0 0 0 0 0 0 0 0 0 0 0 0 0 0 0 0 0 0 0 0 0 0 0 0 0 0 0 0 0 0 0
0 0 0 0 0 0 0 0 0 0 0 0 0 0 0 0 0 0 0 0 0 0 0 0 0 0 0 0 0 0 0 0 0 0 0 0 0 0 0 0 0 0 0
0 0 0 0 0 0 0 0 0 0 0 0 0 0 0 0 0 0 0 0 0 0 0 0 0 0 0 0 0 0 0 0 0 0 0 0 0 0 0 0 0 0 0
0 0 0 0 0 0 0 0 0 0 0 0 0 0 0 0 0 0 0 0 0 0 0 0 0 0 0 0 0 0 0 0 0 0 0 0 0 0 0 0 0 0 0
0 0 0 0 0 0 0 0 0 0 0 0 0 0 0 0 0 0 0 0 0 0 0 0 0 0 0 0 0 0 0 0 0 0 0 0 0 0 0 0 0 0 0
0 0 0 0 0 0 0 0 0 0 0 0 0 0 0 0 0 0 0 0 0 0 0 0 0 0 0 0 0 0 0 0 0 0 0 0 0 0 0 0 0 0 0
0 0 0 0 0 0 0 0 0 0 0 0 0 0 0 0 0 0 0 0 0 0 0 0 0 0 0 0 0 0 0 0 0 0 0 0 0 0 0 0 0 0 0
0 0 0 0 0 0 0 0 0 0 0 0 0 0 0 0 0 0 0 0 0 0 0 0 0 0 0 0 0 0 0 0 0 0 0 0 0 0 0 0 0 0 0
0 0 0 0 0 0 0 0 0 0 0 0 0 0 0 0 0 0 0 0 0 0 0 0 0 0 0 0 0 0 0 0 0 0 0 0 0 0 0 0 0 0 0
0 0 0 0 0 0 0 0 0 0 0 0 0 0 0 0 0 0 0 0 0 0 0 0 0 0 0 0 0 0 0 0 0 0 0 0 0 0 0 0 0 0 0
0 0 0 0 0 0 0 0 0 0 0 0 0 0 0 0 0 0 -0 -0 -0 0 0 0 0 0 0 0 0 0 0 0 0 0 0 0 0 0 0 0 0 0 0
0 0 0 0 0 0 0 0 0 0 0 0 0 0 0 0 0 0 -0 -0 -0 0 0 0 0 0 0 0 0 0 0 0 0 0 0 0 0 0 0 0 0 0 0
0 0 0 0 0 0 0 0 0 0 0 0 0 0 0 0 0 0 0 0 0 0 0 0 0 0 0 0 0 0 0 0 0 0 0 0 0 0 0 0 0 0 0
0 0 0 0 0 0 0 0 0 0 0 0 0 0 0 0 0 0 0 0 0 0 0 0 0 0 0 0 0 0 0 0 0 0 0 0 0 0 0 0 0 0 0
0 0 0 0 0 0 0 0 0 0 0 0 0 0 0 0 0 0 0 0 0 0 0 0 0 0 0 0 0 0 0 0 0 0 0 0 0 0 0 0 0 0 0
0 0 0 0 0 0 0 0 0 0 0 0 0 0 0 0 0 0 0 0 0 0 0 0 0 0 0 0 0 0 0 0 0 0 0 0 0 0 0 0 0 0 0
0 0 0 0 0 0 0 0 0 0 0 0 0 0 0 0 0 0 0 0 0 0 0 0 0 0 0 0 0 0 0 0 0 0 0 0 0 0 0 0 0 0 0
0 0 0 0 0 0 0 0 0 0 0 0 0 0 0 0 0 0 0 0 0 0 0 0 0 0 0 0 0 0 0 0 0 0 0 0 0 0 0 0 0 0 0
0 0 0 0 0 0 0 0 0 0 0 0 0 0 0 0 0 0 0 0 0 0 0 0 0 0 0 0 0 0 0 0 0 0 0 0 0 0 0 0 0 0 0
0 0 0 0 0 0 0 0 0 0 0 0 0 0 0 0 0 0 0 0 0 0 0 0 0 0 0 0 0 0 0 0 0 0 0 0 0 0 0 0 0 0 0
0 0 0 0 0 0 0 0 0 0 0 0 0 0 0 0 0 0 0 0 0 0 0 0 0 0 0 0 0 0 0 0 0 0 0 0 0 0 0 0 0 0 0
Wind_Speed
10 9 10 10 9 9 9 8 9 8 7 4 3 2 3 4 4 5 6 7 7 7 7 5 5 5 5 5 5 3 3 2 2 3 1 1 1 2 3 3 3 4 4
14 13 12 11 10 9 9 8 8 8 7 5 4 3 3 4 4 4 6 7 8 8 7 7 5 5 4 4 5 4 3 2 3 3 2 1 2 2 1 2 3 4 3
14 14 13 11 11 10 9 8 9 8 7 7 5 4 3 2 2 4 5 6 8 8 8 8 7 6 6 5 6 5 6 4 2 2 4 4 4 2 2 2 2 2 3
12 12 12 12 11 10 9 8 8 8 7 6 5 5 4 4 4 3 3 5 6 7 8 8 8 7 6 6 6 6 4 5 3 2 1 2 3 2 1 2 1 1 3
12 12 12 11 11 10 9 8 8 7 7 6 6 5 4 4 4 3 3 4 4 5 6 7 7 7 6 7 7 6 5 4 4 3 3 2 1 2 2 2 2 1 1
13 12 11 10 9 9 8 8 8 7 7 6 6 6 6 5 4 3 3 2 2 3 4 5 6 6 6 6 6 6 6 4 4 3 3 3 3 3 3 3 2 2 2
12 13 14 13 11 10 9 8 8 7 8 7 6 6 6 5 4 3 2 1 1 2 4 5 5 5 5 6 6 6 6 6 5 5 3 3 3 3 3 3 2 2 2
12 13 14 12 11 10 10 9 8 8 7 7 7 6 6 4 3 3 2 1 0 0 2 3 4 5 5 6 5 4 5 5 5 5 5 3 3 3 3 3 4 2 1
13 13 13 12 11 10 10 9 8 8 8 7 7 7 7 6 5 5 4 3 2 2 3 3 2 3 4 5 5 4 4 4 4 4 4 3 3 3 3 2 3 4 2
13 13 12 11 10 9 8 8 8 7 7 7 7 6 6 6 5 5 6 5 5 4 4 4 3 3 3 3 4 3 3 3 3 3 4 3 2 3 3 3 2 3 3
12 11 11 10 9 9 9 8 8 8 8 8 7 7 7 6 6 6 6 5 5 5 5 5 4 4 4 3 3 3 3 3 3 3 3 3 3 2 2 2 2 2 3
10 9 9 9 9 9 9 9 9 8 8 8 8 8 7 7 7 7 6 6 5 5 4 4 5 4 4 3 2 2 3 3 2 3 3 3 3 3 2 2 3 3 3
9 8 8 8 8 8 8 8 8 9 8 8 8 8 8 8 8 8 7 7 6 6 6 6 6 5 4 4 3 2 2 2 2 2 3 3 3 3 2 3 3 2 2
7 7 7 7 7 7 7 8 8 8 8 8 8 9 8 8 8 8 8 8 8 7 7 6 6 5 4 4 3 2 2 1 1 1 2 3 4 4 4 3 3 3 3
7 7 7 6 6 6 7 7 7 8 7 8 8 8 8 8 8 8 8 8 8 9 7 7 7 6 4 4 3 2 2 1 1 0 1 2 4 5 4 4 4 4 3
7 7 7 6 6 6 6 6 6 7 6 7 8 7 7 8 8 8 8 8 8 8 8 8 7 7 6 8 7 4 2 2 1 1 1 1 2 3 5 7 7 6 5
7 6 5 5 4 4 4 4 5 5 6 7 7 7 7 7 7 7 7 8 7 7 8 8 7 7 8 11 9 7 3 3 2 2 1 1 2 4 4 6 7 5 5
6 5 5 4 3 3 3 3 4 5 6 6 7 7 7 7 6 7 7 7 5 6 6 7 7 7 10 14 11 8 5 4 3 3 3 2 2 3 5 5 5 4 4
4 4 3 3 3 2 2 3 4 5 6 6 6 6 6 6 7 7 6 5 5 6 6 5 7 8 9 14 11 7 3 3 4 4 3 3 2 3 7 6 6 5 4
4 4 3 2 2 2 2 3 4 4 4 4 4 5 5 6 6 6 5 5 5 5 5 6 6 7 8 13 13 8 3 3 3 4 4 5 3 4 6 5 6 6 4
4 4 3 3 3 2 1 2 3 3 2 3 4 5 5 5 5 5 5 5 5 6 6 6 6 7 8 11 13 10 3 3 3 3 3 3 5 5 6 5 4 5 6
5 4 4 4 3 2 1 2 2 1 2 4 5 5 6 5 5 5 6 6 6 6 6 6 7 6 7 9 11 12 9 5 4 3 3 3 7 8 8 6 8 11 9
4 3 3 3 3 3 1 1 1 2 4 4 5 4 5 5 5 5 6 5 6 5 5 6 6 6 6 7 12 12 11 10 5 4 7 9 10 10 8 11 11 8 5
3 3 3 4 4 4 2 1 0 3 4 4 3 3 4 4 5 4 4 4 5 5 5 6 6 5 6 6 6 5 5 7 7 6 8 12 14 10 9 9 7 5 4
2 2 2 2 3 3 3 2 2 4 4 3 3 2 3 2 3 3 3 3 3 4 4 3 4 4 5 7 9 5 4 4 4 4 5 6 6 6 6 6 6 5 5
2 2 2 2 3 3 3 2 1 4 4 3 2 2 1 1 1 1 2 3 3 6 8 8 5 3 6 8 11 12 12 11 9 7 6 6 6 6 5 5 5 5 5
Wind_Direction
350 350 350 346 343 344 346 342 344 342 343 336 317 278 247 235 233 227 213 202 199 200 200 208 201 189 194 194 179 159 159 154 135 114 86 328 264 227 231 223 223 226 222
347 347 347 345 343 341 342 339 338 334 336 326 307 280 269 251 233 226 217 209 201 198 204 201 196 189 189 183 172 158 152 158 153 144 131 307 321 289 236 229 227 229 212
341 338 339 339 337 337 337 335 330 326 327 326 314 301 281 271 247 226 219 217 210 199 198 197 190 185 182 186 182 176 164 167 170 158 149 162 219 273 298 263 242 228 214
338 336 334 335 333 330 329 327 324 321 324 327 324 315 297 278 266 256 236 225 214 201 195 188 181 180 181 182 185 182 176 157 166 172 162 155 157 162 284 308 294 249 224
337 335 334 329 327 325 326 326 324 322 323 326 324 315 304 287 282 272 247 236 216 199 190 184 178 179 179 178 177 174 180 174 169 170 165 156 149 153 165 246 293 315 266
337 336 334 330 327 326 328 331 330 326 329 331 334 330 322 311 299 283 257 236 207 189 185 182 183 181 174 175 177 174 179 186 182 181 176 169 169 183 177 200 226 254 281
338 338 339 339 337 334 334 335 337 335 337 340 344 341 337 328 311 298 283 262 211 189 186 185 182 177 170 172 170 175 180 182 183 187 192 190 188 167 169 174 193 225 277
339 339 340 338 337 336 339 344 345 342 344 350 349 351 351 349 350 355 355 358 13 152 162 172 173 175 173 172 170 174 178 174 182 190 190 193 195 179 175 166 156 175 267
339 339 339 341 341 342 345 346 347 352 354 355 356 2 3 8 15 18 23 32 41 66 87 105 127 149 159 155 154 157 163 173 187 195 193 190 190 184 179 162 159 162 190
336 336 337 338 344 345 346 352 360 0 358 2 5 9 10 15 21 30 35 38 42 54 69 74 86 105 113 133 144 143 156 160 173 182 185 190 183 179 171 172 169 164 168
330 331 335 339 347 355 359 3 6 6 8 9 8 15 17 20 27 33 34 38 44 51 63 68 73 84 95 106 126 140 155 161 171 172 171 184 170 167 166 162 160 166 163
325 329 337 346 354 359 0 5 8 10 9 9 16 20 23 26 30 32 33 37 43 46 59 68 69 71 77 85 105 123 136 139 158 174 169 174 164 161 160 160 166 173 174
326 334 343 350 354 357 2 5 7 8 7 12 20 24 25 28 29 29 30 33 40 45 46 54 58 58 60 64 71 92 100 116 153 165 165 169 161 164 161 162 163 160 154
329 338 341 345 351 356 2 4 7 9 13 18 23 25 24 27 32 32 33 36 40 42 40 43 43 47 53 52 53 72 92 109 134 166 183 178 177 175 167 162 156 139 128
337 340 340 341 351 358 0 3 7 8 13 23 25 21 21 26 33 35 36 38 42 43 39 42 36 30 36 37 44 59 84 113 119 200 201 179 175 174 164 151 148 138 127
331 336 339 343 352 356 358 2 5 4 14 24 21 17 21 27 29 31 34 38 38 37 38 36 30 27 26 31 44 51 49 59 92 119 114 131 133 151 150 146 147 146 140
322 329 332 330 331 342 354 360 358 7 23 25 21 18 22 28 24 29 34 32 30 32 35 31 26 20 15 27 36 46 55 54 54 63 83 102 110 115 118 120 117 114 121
322 324 324 325 325 340 4 10 17 23 28 27 24 19 22 26 23 29 29 24 24 29 29 28 22 18 17 24 28 36 45 52 48 43 55 82 82 105 124 117 104 90 82
306 302 304 304 317 345 10 28 25 25 33 30 25 21 25 29 29 29 23 16 23 28 27 23 20 18 9 17 27 39 37 47 42 38 44 65 75 103 131 124 116 102 85
329 329 330 338 347 347 28 39 24 28 31 30 30 30 34 36 32 27 22 18 23 23 23 23 17 14 9 12 22 33 42 51 47 40 38 47 61 102 121 126 129 123 113
343 352 358 357 334 332 45 37 24 25 37 56 49 39 34 40 36 31 26 22 23 24 21 17 10 12 12 11 20 30 44 48 57 53 35 28 58 91 112 116 119 128 123
354 358 2 354 346 2 48 26 8 50 90 75 61 48 37 37 37 38 32 25 23 26 19 14 11 8 7 12 20 34 47 56 64 55 39 45 68 81 88 96 111 115 110
352 353 3 1 360 6 34 8 318 128 108 87 72 59 51 42 36 41 36 29 25 26 19 16 13 4 2 7 21 33 46 52 61 60 70 70 69 70 71 80 93 97 97
347 353 12 16 358 349 2 342 178 136 120 107 92 72 62 49 38 38 37 36 26 22 18 15 9 2 4 7 7 16 33 44 55 58 64 68 66 65 65 66 66 67 81
332 355 11 2 346 348 359 13 117 132 125 122 116 96 79 67 45 38 32 28 17 15 15 359 355 2 8 7 21 37 37 43 59 64 54 52 52 57 56 57 57 57 65
327 353 0 357 347 355 1 9 115 144 140 140 148 148 139 111 49 17 0 4 17 27 33 31 29 12 27 32 41 48 53 57 66 70 64 60 58 60 58 63 61 55 56